Temperature
18 18 18 18 18 18 18 18 18 18 18 18 18 17 18 18 18 18 18 18 18 18 18 18 18 18 18 18 18 18 18 18 18 18 18 18 18 18 19 18 18 18 18
18 18 18 18 18 18 18 18 18 17 17 17 17 17 17 17 17 17 17 17 17 17 18 18 18 18 18 18 18 18 18 18 18 18 18 18 18 18 18 18 18 18 18
18 18 18 18 18 18 18 17 17 17 17 17 17 17 17 17 17 17 17 17 17 17 17 17 17 18 18 18 18 18 18 18 18 18 18 17 18 18 18 18 18 18 18
18 17 18 18 17 17 17 17 17 17 17 17 17 17 17 17 17 17 17 17 17 17 17 17 17 17 17 18 18 18 18 18 18 18 17 17 17 18 18 18 18 18 18
17 17 18 17 17 17 17 17 17 17 17 17 17 16 16 16 16 16 16 16 17 17 17 17 17 17 17 17 18 18 18 18 17 17 17 17 17 18 18 18 18 18 18
17 17 17 17 17 17 17 17 17 17 17 16 16 16 16 16 16 16 16 16 16 16 16 16 16 17 17 17 17 17 17 17 17 17 17 17 17 17 18 18 18 18 18
17 17 17 17 17 17 17 17 16 16 16 16 16 16 16 16 16 16 16 16 16 16 16 16 16 16 17 17 17 17 17 17 17 17 17 17 17 17 17 17 18 18 18
17 17 17 17 17 17 17 16 16 16 16 16 16 16 16 16 16 16 16 16 16 16 16 16 16 16 17 17 17 17 17 17 17 17 17 17 17 17 17 17 17 17 17
18 17 17 17 17 17 17 17 16 16 16 16 16 16 16 16 16 16 16 16 16 16 16 16 16 17 17 17 17 17 17 17 17 17 17 17 17 17 17 17 17 17 17
18 18 17 17 17 17 17 17 16 16 16 16 16 16 16 16 16 16 16 16 16 16 16 16 17 17 17 17 17 17 17 17 17 17 17 17 17 17 17 17 17 17 17
18 18 18 18 17 17 17 17 17 16 16 16 16 16 16 16 16 16 16 16 16 16 16 16 17 17 17 17 17 17 17 17 17 17 17 17 17 17 17 17 17 17 17
18 18 18 18 18 17 17 17 17 17 16 16 16 16 16 16 16 16 16 16 16 16 16 16 17 17 17 17 17 17 17 17 17 17 17 17 17 17 17 17 17 17 17
19 19 19 18 18 18 17 17 17 17 17 17 17 17 17 17 16 16 16 16 16 16 16 16 17 17 17 17 17 17 17 17 17 17 17 17 17 17 17 17 17 17 17
19 19 19 19 18 18 18 17 17 17 17 17 17 17 17 17 17 16 16 16 16 16 16 16 16 17 17 17 17 17 17 17 17 16 16 16 16 16 17 17 17 17 17
19 19 19 19 19 18 18 18 18 17 17 17 17 17 17 17 17 17 17 16 16 16 16 16 16 16 17 17 17 17 17 16 16 16 16 16 16 16 16 16 16 16 17
19 19 19 19 19 18 18 18 18 17 17 17 17 17 17 17 17 17 16 16 16 16 16 16 16 16 16 16 16 16 16 16 16 16 16 16 16 16 16 16 16 16 16
19 19 19 19 18 18 18 18 17 17 17 17 17 17 17 17 17 16 16 16 16 16 16 16 16 16 16 16 16 16 16 16 16 16 16 16 16 16 16 16 16 16 16
20 19 19 19 18 18 18 17 17 17 17 17 16 17 17 17 17 16 16 16 16 16 16 16 16 16 16 16 16 16 16 16 16 16 16 16 15 16 16 16 16 16 16
19 19 19 18 18 17 17 17 17 17 17 16 16 16 16 16 16 16 16 16 16 16 16 16 16 16 16 16 16 16 16 16 16 16 16 16 15 15 15 15 16 16 16
19 19 18 18 18 17 17 17 17 16 16 16 16 16 16 16 16 16 16 16 16 16 16 16 16 16 16 16 16 16 16 16 16 16 15 15 15 15 15 15 15 15 16
19 19 18 18 18 17 17 17 17 16 16 16 15 15 16 16 16 16 16 16 16 15 15 16 16 16 16 16 16 16 16 15 15 15 15 15 15 15 15 15 15 15 15
19 19 19 18 18 17 17 17 17 16 16 16 15 15 15 15 16 16 16 16 16 15 15 15 15 15 16 16 16 16 15 15 15 15 15 15 15 15 15 15 15 15 15
19 19 19 18 18 17 17 17 17 16 16 16 15 15 15 15 15 16 16 16 15 15 15 15 15 15 15 16 16 16 16 15 15 15 15 15 15 15 15 14 14 15 15
19 19 19 18 18 17 17 17 17 16 16 16 15 15 15 15 15 15 16 16 15 15 15 15 15 15 15 16 16 16 16 16 16 15 15 15 15 15 15 14 14 14 15
19 19 19 18 18 17 17 17 16 16 16 16 15 15 15 15 15 15 16 16 16 15 15 15 15 15 15 16 16 16 16 16 16 15 15 15 15 14 14 14 14 14 14
19 19 19 18 18 17 17 17 16 16 16 16 16 16 15 15 15 16 16 16 16 15 15 15 15 15 15 16 16 16 16 16 15 15 15 15 14 14 14 14 14 14 14
Wind_Speed
8 11 11 11 11 11 12 11 11 11 10 10 10 11 11 11 11 11 11 10 10 10 10 10 10 10 10 10 9 9 8 7 7 6 7 8 9 9 10 10 9 8 9
11 13 13 12 12 12 12 12 11 11 11 11 11 11 11 10 10 10 9 9 10 10 10 9 9 9 9 9 8 8 7 6 5 4 5 7 9 10 10 11 11 9 9
12 14 13 13 13 13 13 12 11 11 10 11 11 11 11 10 9 9 9 9 9 9 9 9 9 8 8 8 7 6 6 6 5 5 4 4 8 10 10 11 10 10 9
13 14 13 13 13 14 13 13 12 12 11 11 11 11 10 10 9 9 9 9 8 8 8 8 7 7 7 7 6 5 5 6 6 6 5 6 9 11 11 11 10 9 9
14 14 14 14 13 14 14 13 13 12 12 11 11 10 9 9 9 8 8 8 7 7 7 7 6 6 6 5 5 5 5 6 6 5 6 11 11 11 11 10 10 10 9
13 15 14 14 14 14 13 13 13 13 12 11 10 10 9 9 8 8 7 7 7 7 6 6 6 5 5 5 5 5 5 7 6 4 8 11 10 11 11 10 10 10 9
13 14 14 15 14 14 13 13 13 12 11 10 10 9 8 8 7 7 7 7 7 6 6 6 5 5 5 5 4 4 6 7 3 4 9 11 11 10 10 10 10 10 10
12 14 14 15 15 14 13 12 11 10 10 9 8 8 7 7 7 7 7 6 6 6 6 5 5 5 4 3 3 4 6 6 4 6 11 11 11 11 10 10 10 10 10
10 12 13 13 14 14 13 12 10 9 8 7 6 6 5 5 6 6 6 6 6 5 5 5 4 3 2 2 2 3 5 7 4 5 10 11 11 11 11 10 10 9 10
8 8 10 12 14 13 12 11 10 8 7 6 5 5 5 5 6 6 6 5 5 4 3 3 3 2 1 0 1 3 5 6 4 10 11 11 11 11 11 10 10 10 10
7 6 7 8 10 12 12 11 10 9 7 7 6 6 6 7 8 7 7 6 4 3 2 2 2 2 2 3 3 4 5 1 8 11 11 11 11 11 11 10 10 11 11
6 6 7 6 6 7 7 9 9 8 7 6 5 5 5 4 5 7 9 7 5 4 3 4 4 4 5 6 5 4 3 4 11 11 10 11 11 11 10 11 11 11 11
7 5 6 6 6 6 4 5 4 5 5 4 3 4 4 4 5 7 7 7 7 6 5 4 5 4 3 1 2 2 5 9 11 12 11 11 11 11 11 11 11 11 12
6 5 4 5 6 6 5 3 3 3 3 4 4 5 5 2 2 3 3 2 4 3 1 1 1 3 3 3 5 5 8 8 11 11 11 12 11 11 12 12 12 13 13
7 5 4 4 6 6 3 0 4 4 4 6 3 3 5 2 2 1 3 3 3 3 2 2 3 4 5 6 7 7 7 8 11 11 10 12 13 13 13 13 13 13 14
6 6 4 4 5 5 4 2 3 4 4 6 3 3 6 4 3 2 3 2 3 3 4 4 4 4 4 4 5 7 7 7 9 12 11 12 13 14 14 14 15 15 15
7 7 5 5 5 6 6 5 4 4 6 5 4 5 6 5 6 4 3 3 3 5 6 5 5 4 4 4 5 5 6 7 7 10 10 10 11 13 14 15 16 16 16
8 9 6 6 7 8 6 4 4 6 6 5 6 8 7 8 10 6 3 3 5 5 4 3 3 4 4 4 4 5 5 5 7 8 9 9 9 10 12 14 15 16 17
8 8 7 6 7 7 5 4 5 5 5 6 7 8 9 10 10 7 3 3 6 4 3 4 4 3 3 3 3 4 4 4 5 7 7 9 9 10 10 12 14 16 17
6 8 8 7 7 5 3 4 4 4 4 6 6 6 7 8 9 7 4 5 5 4 4 4 4 3 2 3 4 5 4 5 5 5 6 7 8 9 9 9 10 12 16
5 7 8 7 6 4 2 3 4 3 4 4 4 6 6 7 7 6 4 4 4 4 4 5 3 3 3 3 3 3 4 5 5 5 4 4 5 9 10 10 9 9 12
6 6 7 7 6 5 2 4 4 4 4 4 3 5 7 8 7 5 4 3 3 3 4 4 3 2 1 2 2 2 2 3 4 4 4 4 5 7 8 10 11 12 13
6 5 6 7 6 6 5 4 5 4 3 3 4 3 5 8 8 7 6 3 2 3 3 3 3 3 1 1 2 2 2 2 1 3 4 5 5 4 5 8 11 13 13
8 6 7 7 6 6 6 4 4 4 3 3 3 3 4 6 7 6 5 4 3 3 3 3 4 2 2 1 1 1 2 3 3 2 3 4 5 5 5 6 9 12 13
8 6 6 7 7 6 7 5 3 4 3 3 4 4 4 4 5 6 6 5 4 3 4 5 5 4 2 2 1 2 2 2 2 3 2 1 3 3 4 5 7 10 13
8 6 6 7 7 7 6 5 4 5 5 4 4 4 4 3 3 3 5 4 4 3 4 3 3 3 3 3 3 2 2 2 2 2 2 2 2 2 4 4 5 7 10
Wind_Direction
96 94 89 86 87 90 92 90 90 92 94 94 94 93 88 84 81 77 74 71 70 70 69 68 65 65 65 63 61 60 60 58 58 61 66 64 61 58 53 46 49 58 58
102 97 92 89 88 90 91 90 89 91 92 91 92 91 89 86 82 78 74 73 71 70 70 66 63 62 61 60 59 55 50 45 39 38 57 65 64 63 61 57 54 53 53
102 103 95 91 90 89 90 90 90 89 89 90 91 90 88 86 83 80 74 72 71 69 66 64 62 59 57 57 54 48 37 24 15 7 18 62 70 65 63 60 56 53 50
97 93 92 93 93 92 90 88 90 89 90 93 92 90 88 86 83 80 75 71 69 67 64 62 60 57 56 53 48 39 20 3 1 3 28 65 71 68 63 60 55 53 51
94 94 94 95 94 93 91 88 88 88 89 92 90 89 88 87 84 81 80 76 71 67 62 59 58 56 56 52 41 24 5 352 353 9 55 72 73 69 64 57 52 51 48
100 98 99 99 97 95 93 92 91 89 87 87 85 84 85 86 83 80 81 79 74 68 61 57 57 57 55 47 33 16 356 342 350 51 75 77 73 67 62 57 53 49 46
104 105 104 104 101 98 96 94 92 92 91 89 88 86 85 86 86 85 82 77 72 66 60 58 57 56 54 45 26 3 346 343 336 76 83 81 78 70 61 55 51 47 44
107 111 112 112 108 103 100 98 96 95 94 93 93 94 93 95 92 89 83 77 72 67 64 60 57 62 56 41 17 348 338 342 24 77 89 81 76 68 60 53 48 46 44
111 119 124 126 118 112 108 106 103 103 104 105 108 114 121 124 116 107 97 86 79 73 70 66 65 70 66 44 356 331 329 339 358 57 85 77 73 66 59 52 47 43 41
116 123 129 131 131 130 123 122 124 126 129 134 140 155 163 167 152 137 122 106 95 88 88 88 86 97 125 225 287 302 312 324 53 75 79 77 72 66 58 51 47 42 40
109 117 120 124 133 137 135 137 149 151 162 172 187 199 190 191 174 154 124 132 130 132 148 163 178 194 217 237 252 278 296 284 85 81 72 74 71 66 58 52 49 44 40
132 125 122 125 125 118 117 144 164 155 166 180 177 185 191 138 118 127 140 155 166 179 205 223 231 235 234 233 231 250 291 95 89 88 74 74 71 65 58 54 52 47 43
123 122 124 124 118 118 109 109 111 127 151 134 124 125 104 102 130 134 156 173 192 197 224 214 222 238 223 161 128 122 65 70 80 84 76 74 72 67 60 55 53 49 46
118 111 107 118 119 101 95 117 143 113 103 75 36 73 82 73 90 102 127 140 157 150 164 109 81 60 48 65 72 71 78 85 90 92 81 75 72 68 63 58 56 54 49
105 104 87 77 100 104 93 126 96 73 78 88 30 51 94 72 61 84 94 83 68 74 80 58 60 55 41 47 60 60 63 77 91 98 90 80 75 70 66 61 58 55 51
135 121 112 101 97 116 122 94 83 98 92 81 28 38 80 85 78 58 75 65 72 72 57 65 73 62 60 49 51 57 58 74 96 108 106 90 79 73 68 64 59 56 52
141 122 97 98 89 80 71 65 84 81 78 69 28 28 69 72 75 67 60 55 53 69 70 55 59 59 69 67 56 61 52 52 76 98 112 107 92 77 71 67 61 57 53
123 114 110 100 85 76 68 55 62 68 72 67 41 21 39 65 75 58 50 49 60 55 75 73 56 58 60 65 55 54 58 44 55 78 93 99 101 95 81 74 67 61 55
118 120 118 97 89 86 92 79 63 70 63 65 55 31 27 43 67 65 50 51 57 48 50 74 61 61 65 72 89 70 59 51 44 57 68 80 86 98 100 84 74 65 58
106 112 108 97 98 103 96 88 68 61 55 55 55 48 32 43 58 56 59 57 59 50 47 72 81 68 65 52 72 76 63 63 53 47 49 61 70 81 91 93 82 69 63
116 114 119 127 121 120 110 105 100 87 77 62 55 43 39 53 61 61 63 57 55 58 60 69 71 71 66 81 74 69 58 57 66 58 46 46 57 63 70 75 75 75 68
142 140 139 128 117 105 88 108 109 102 96 88 60 45 44 49 46 63 70 82 77 68 63 70 69 59 42 84 100 105 91 41 31 48 53 50 50 52 55 64 68 71 67
152 163 138 128 130 127 105 80 88 85 93 95 85 54 48 53 43 42 48 62 79 85 80 80 79 78 55 26 72 99 116 134 94 26 48 59 55 49 50 57 63 71 70
162 164 145 140 128 117 114 103 115 114 104 102 109 111 80 66 55 43 41 45 59 70 72 67 74 70 78 34 27 44 101 126 126 101 35 50 58 57 51 57 61 65 68
152 150 136 126 119 113 110 112 111 111 112 107 111 112 97 78 66 51 44 39 56 66 68 62 56 37 54 51 54 50 45 52 72 107 107 69 52 48 60 58 64 66 68
140 136 125 125 123 120 134 147 135 128 124 123 123 121 116 108 86 70 62 47 50 56 62 69 75 59 48 41 43 64 78 78 82 94 117 117 94 70 72 62 63 70 72
Height
1525 1525 1526 1526 1527 1528 1528 1529 1530 1531 1532 1533 1534 1534 1535 1536 1536 1537 1538 1539 1539 1540 1540 1540 1541 1541 1541 1541 1542 1542 1542 1542 1543 1543 1543 1543 1542 1542 1542 1541 1541 1541 1542
1526 1526 1526 1527 1528 1528 1529 1530 1531 1532 1533 1534 1535 1535 1536 1537 1538 1538 1539 1539 1540 1540 1541 1541 1541 1542 1542 1542 1542 1543 1543 1543 1544 1544 1544 1544 1543 1543 1542 1542 1542 1542 1542
1527 1526 1527 1528 1528 1529 1530 1531 1532 1533 1534 1535 1535 1536 1537 1538 1538 1539 1540 1540 1540 1541 1541 1541 1542 1542 1542 1543 1543 1543 1544 1544 1545 1545 1545 1545 1544 1544 1543 1543 1543 1542 1542
1528 1528 1528 1529 1529 1530 1531 1532 1533 1533 1534 1535 1536 1537 1537 1538 1539 1539 1540 1540 1541 1541 1541 1542 1542 1542 1543 1543 1543 1544 1544 1545 1545 1546 1546 1546 1545 1545 1544 1544 1544 1543 1543
1528 1529 1529 1530 1530 1531 1532 1533 1534 1534 1535 1536 1536 1537 1538 1538 1539 1540 1540 1540 1541 1541 1542 1542 1542 1542 1543 1543 1544 1544 1545 1546 1546 1547 1547 1547 1546 1546 1546 1545 1545 1544 1544
1529 1530 1530 1531 1532 1532 1533 1534 1535 1535 1536 1537 1537 1538 1538 1539 1540 1540 1540 1541 1541 1542 1542 1542 1542 1543 1543 1543 1544 1545 1545 1546 1547 1547 1548 1547 1547 1547 1547 1546 1545 1545 1544
1531 1531 1532 1533 1533 1534 1534 1535 1536 1536 1537 1538 1538 1539 1539 1540 1541 1541 1541 1542 1542 1542 1542 1542 1543 1543 1543 1544 1544 1545 1546 1547 1547 1548 1548 1548 1548 1548 1547 1547 1546 1546 1545
1533 1533 1533 1534 1535 1536 1536 1537 1537 1538 1538 1539 1539 1540 1540 1541 1542 1542 1542 1542 1543 1543 1543 1543 1543 1544 1544 1544 1545 1546 1546 1547 1548 1549 1549 1549 1549 1549 1548 1547 1547 1546 1546
1535 1534 1535 1536 1537 1537 1538 1539 1539 1539 1540 1540 1541 1541 1542 1542 1543 1543 1543 1544 1544 1544 1544 1544 1544 1544 1545 1545 1546 1547 1547 1548 1549 1550 1549 1549 1549 1549 1549 1548 1548 1547 1546
1536 1537 1537 1538 1538 1539 1540 1541 1541 1541 1542 1542 1542 1543 1543 1544 1544 1545 1545 1545 1545 1545 1545 1545 1546 1546 1546 1547 1548 1548 1549 1549 1550 1550 1550 1550 1550 1550 1549 1549 1548 1548 1547
1539 1539 1540 1541 1541 1541 1542 1543 1543 1543 1543 1544 1544 1545 1545 1545 1546 1546 1546 1547 1546 1546 1546 1547 1547 1547 1548 1549 1549 1550 1550 1550 1551 1551 1551 1551 1551 1551 1550 1550 1549 1548 1547
1540 1541 1542 1543 1544 1544 1545 1544 1544 1545 1545 1545 1546 1546 1547 1547 1548 1548 1548 1548 1548 1548 1548 1549 1549 1549 1549 1550 1551 1551 1551 1551 1552 1552 1552 1552 1552 1552 1551 1551 1550 1549 1548
1541 1543 1544 1544 1545 1546 1546 1547 1547 1548 1547 1548 1548 1549 1549 1549 1549 1549 1549 1549 1549 1550 1550 1550 1550 1550 1551 1552 1552 1553 1553 1553 1553 1553 1553 1553 1553 1553 1552 1552 1551 1550 1549
1542 1544 1545 1546 1546 1547 1548 1548 1548 1549 1549 1549 1550 1550 1550 1550 1551 1550 1551 1551 1551 1551 1551 1552 1552 1552 1552 1553 1554 1554 1554 1554 1554 1555 1555 1554 1554 1554 1553 1553 1552 1551 1550
1543 1544 1546 1547 1547 1548 1548 1549 1550 1550 1550 1550 1551 1551 1551 1551 1552 1552 1552 1552 1552 1553 1553 1553 1553 1553 1554 1554 1555 1555 1555 1555 1556 1556 1556 1556 1556 1555 1555 1554 1554 1553 1552
1543 1545 1546 1548 1548 1549 1549 1550 1551 1551 1551 1551 1552 1553 1553 1552 1553 1553 1553 1553 1553 1554 1554 1554 1555 1555 1555 1556 1556 1557 1557 1557 1557 1557 1558 1558 1557 1557 1556 1556 1555 1554 1553
1544 1545 1547 1548 1549 1550 1550 1551 1552 1552 1552 1553 1553 1553 1554 1554 1553 1554 1554 1554 1555 1555 1555 1556 1556 1557 1557 1558 1558 1559 1559 1559 1559 1559 1560 1559 1559 1559 1558 1558 1557 1556 1555
1544 1545 1547 1549 1550 1550 1551 1552 1553 1553 1553 1554 1554 1554 1554 1555 1554 1554 1555 1555 1556 1556 1557 1557 1557 1558 1559 1559 1560 1560 1560 1561 1561 1562 1562 1561 1561 1561 1560 1560 1559 1558 1557
1544 1546 1548 1549 1550 1551 1552 1553 1553 1554 1554 1555 1555 1555 1555 1555 1555 1555 1556 1556 1557 1557 1557 1558 1559 1559 1560 1560 1561 1562 1562 1562 1563 1564 1564 1564 1563 1563 1562 1561 1561 1560 1559
1545 1546 1548 1550 1551 1552 1553 1554 1554 1555 1555 1555 1555 1556 1556 1556 1557 1557 1557 1557 1558 1558 1559 1559 1560 1560 1561 1562 1563 1563 1564 1564 1565 1565 1565 1565 1565 1565 1564 1563 1562 1561 1560
1545 1547 1548 1550 1552 1553 1554 1554 1555 1555 1556 1556 1556 1557 1558 1558 1558 1558 1558 1558 1559 1559 1560 1560 1561 1562 1562 1563 1564 1564 1565 1566 1566 1567 1567 1567 1567 1566 1566 1565 1564 1563 1562
1545 1547 1548 1551 1552 1553 1554 1555 1556 1556 1557 1557 1558 1558 1558 1559 1559 1559 1559 1559 1560 1560 1561 1561 1562 1563 1563 1564 1565 1565 1566 1568 1568 1568 1568 1568 1568 1568 1567 1567 1566 1565 1564
1544 1547 1549 1550 1552 1553 1554 1555 1556 1557 1558 1558 1558 1559 1559 1559 1560 1560 1560 1561 1561 1561 1562 1562 1563 1563 1564 1565 1565 1566 1566 1567 1568 1570 1569 1569 1569 1569 1569 1568 1567 1566 1565
1544 1546 1548 1550 1552 1553 1555 1556 1557 1558 1559 1559 1560 1560 1560 1560 1561 1561 1561 1562 1562 1562 1563 1563 1564 1564 1565 1565 1566 1566 1567 1567 1568 1570 1571 1570 1570 1570 1570 1569 1568 1567 1567
1543 1546 1548 1550 1552 1553 1554 1556 1557 1558 1559 1560 1561 1561 1561 1561 1562 1562 1562 1563 1563 1563 1564 1564 1564 1565 1565 1566 1566 1566 1567 1567 1568 1569 1570 1571 1571 1571 1571 1570 1570 1569 1568
1541 1545 1547 1549 1551 1553 1555 1556 1557 1559 1560 1561 1562 1562 1562 1562 1563 1563 1563 1564 1564 1564 1565 1565 1565 1565 1565 1566 1566 1567 1567 1567 1568 1569 1570 1571 1571 1572 1572 1572 1571 1570 1570